Time,TemperatureF,DewpointF,PressureIn,WindDirection,WindDirectionDegrees,WindSpeedMPH,WindSpeedGustMPH,Humidity,HourlyPrecipIn,Conditions,Clouds,dailyrainin,SoftwareType,DateUTC
2013-03-27 00:02:00,53.6,4.0,25.57,NE,44,5.4,5.4,13,0.00,,---,0.00,VWS V14.01,2013-03-27 07:02:00,
2013-03-27 00:07:00,53.8,4.1,25.57,NE,46,3.6,3.6,13,0.00,,---,0.00,VWS V14.01,2013-03-27 07:07:00,
2013-03-27 00:12:00,53.4,3.8,25.57,ENE,59,3.6,3.6,13,0.00,,---,0.00,VWS V14.01,2013-03-27 07:12:00,
2013-03-27 00:17:00,53.2,3.7,25.57,ENE,75,2.2,2.7,13,0.00,,---,0.00,VWS V14.01,2013-03-27 07:17:00,
2013-03-27 00:22:00,52.3,3.0,25.57,ENE,76,0.0,0.0,13,0.00,,---,0.00,VWS V14.01,2013-03-27 07:22:00,
2013-03-27 00:27:00,52.5,3.1,25.57,North,10,3.1,3.1,13,0.00,,---,0.00,VWS V14.01,2013-03-27 07:27:00,
2013-03-27 00:32:00,52.7,3.2,25.57,ENE,76,3.6,5.4,13,0.00,,---,0.00,VWS V14.01,2013-03-27 07:32:00,
2013-03-27 00:37:00,52.3,3.0,25.57,East,83,2.7,4.0,13,0.00,,---,0.00,VWS V14.01,2013-03-27 07:37:00,
2013-03-27 00:42:00,52.0,2.7,25.57,East,85,2.7,2.7,13,0.00,,---,0.00,VWS V14.01,2013-03-27 07:42:00,
2013-03-27 00:47:00,52.2,2.8,25.57,East,85,4.0,4.0,13,0.00,,---,0.00,VWS V14.01,2013-03-27 07:47:00,
2013-03-27 00:52:00,52.3,3.0,25.57,ENE,71,2.7,3.6,13,0.00,,---,0.00,VWS V14.01,2013-03-27 07:52:00,
2013-03-27 00:57:00,52.3,3.0,25.57,ENE,69,3.1,3.1,13,0.00,,---,0.00,VWS V14.01,2013-03-27 07:57:00,
2013-03-27 01:02:00,52.5,3.1,25.57,ESE,111,4.0,4.9,13,0.00,,---,0.00,VWS V14.01,2013-03-27 08:02:00,
2013-03-27 01:07:00,51.8,2.5,25.57,ESE,108,2.7,2.7,13,0.00,,---,0.00,VWS V14.01,2013-03-27 08:07:00,
2013-03-27 01:12:00,51.1,3.6,25.57,South,179,2.7,3.1,14,0.00,,---,0.00,VWS V14.01,2013-03-27 08:12:00,
2013-03-27 01:17:00,51.1,3.6,25.57,ESE,112,2.2,3.1,14,0.00,,---,0.00,VWS V14.01,2013-03-27 08:17:00,
2013-03-27 01:22:00,51.1,3.6,25.57,SW,231,0.0,2.7,14,0.00,,---,0.00,VWS V14.01,2013-03-27 08:22:00,
2013-03-27 01:27:00,51.3,3.7,25.57,South,178,2.2,3.6,14,0.00,,---,0.00,VWS V14.01,2013-03-27 08:27:00,
2013-03-27 01:32:00,51.4,3.8,25.57,South,178,0.0,0.0,14,0.00,,---,0.00,VWS V14.01,2013-03-27 08:32:00,
2013-03-27 01:38:00,52.2,2.8,25.57,South,176,3.6,4.0,13,0.00,,---,0.00,VWS V14.01,2013-03-27 08:38:00,
2013-03-27 01:43:00,51.6,4.0,25.57,WSW,252,4.9,5.4,14,0.00,,---,0.00,VWS V14.01,2013-03-27 08:43:00,
2013-03-27 01:48:00,50.7,3.3,25.57,WSW,252,0.0,0.0,14,0.00,,---,0.00,VWS V14.01,2013-03-27 08:48:00,
2013-03-27 01:53:00,49.8,2.5,25.57,NW,308,4.0,4.0,14,0.00,,---,0.00,VWS V14.01,2013-03-27 08:53:00,
2013-03-27 01:58:00,49.8,2.5,25.57,North,0,3.1,3.6,14,0.00,,---,0.00,VWS V14.01,2013-03-27 08:58:00,
2013-03-27 02:03:00,49.3,2.1,25.57,NNW,334,2.7,3.6,14,0.00,,---,0.00,VWS V14.01,2013-03-27 09:03:00,
2013-03-27 02:08:00,49.8,2.5,25.57,NNE,22,0.0,3.6,14,0.00,,---,0.00,VWS V14.01,2013-03-27 09:08:00,
2013-03-27 02:13:00,49.8,2.5,25.57,WSW,245,3.6,3.6,14,0.00,,---,0.00,VWS V14.01,2013-03-27 09:13:00,
2013-03-27 02:18:00,51.4,3.8,25.57,NNE,22,4.9,5.4,14,0.00,,---,0.00,VWS V14.01,2013-03-27 09:18:00,
2013-03-27 02:23:00,50.7,3.3,25.57,South,182,5.8,5.8,14,0.00,,---,0.00,VWS V14.01,2013-03-27 09:23:00,
2013-03-27 02:28:00,49.6,2.4,25.57,South,175,0.0,0.0,14,0.00,,---,0.00,VWS V14.01,2013-03-27 09:28:00,
2013-03-27 02:33:00,51.4,3.8,25.57,NE,40,0.0,3.1,14,0.00,,---,0.00,VWS V14.01,2013-03-27 09:33:00,
2013-03-27 02:38:00,50.4,3.0,25.57,South,181,3.6,3.6,14,0.00,,---,0.00,VWS V14.01,2013-03-27 09:38:00,
2013-03-27 02:43:00,50.2,2.8,25.57,South,181,3.1,3.1,14,0.00,,---,0.00,VWS V14.01,2013-03-27 09:43:00,
2013-03-27 02:48:00,50.9,3.4,25.57,South,176,4.9,4.9,14,0.00,,---,0.00,VWS V14.01,2013-03-27 09:48:00,
2013-03-27 02:53:00,50.2,2.8,25.57,South,170,3.6,4.0,14,0.00,,---,0.00,VWS V14.01,2013-03-27 09:53:00,
2013-03-27 02:58:00,49.5,2.3,25.57,WSW,241,4.9,4.9,14,0.00,,---,0.00,VWS V14.01,2013-03-27 09:58:00,
2013-03-27 03:03:00,48.9,1.8,25.57,SSW,197,4.0,4.0,14,0.00,,---,0.00,VWS V14.01,2013-03-27 10:03:00,
2013-03-27 03:08:00,49.8,2.5,25.57,South,180,0.0,0.0,14,0.00,,---,0.00,VWS V14.01,2013-03-27 10:08:00,
2013-03-27 03:13:00,50.2,2.8,25.57,South,179,3.6,4.9,14,0.00,,---,0.00,VWS V14.01,2013-03-27 10:13:00,
2013-03-27 03:18:00,50.2,2.8,25.57,South,179,0.0,0.0,14,0.00,,---,0.00,VWS V14.01,2013-03-27 10:18:00,
2013-03-27 03:23:00,50.2,2.8,25.57,SSE,165,8.1,8.3,14,0.00,,---,0.00,VWS V14.01,2013-03-27 10:23:00,
2013-03-27 03:28:00,49.5,2.3,25.57,SSE,148,3.6,3.6,14,0.00,,---,0.00,VWS V14.01,2013-03-27 10:28:00,
2013-03-27 03:33:00,49.1,2.0,25.57,SE,144,4.0,5.4,14,0.00,,---,0.00,VWS V14.01,2013-03-27 10:33:00,
2013-03-27 03:38:00,48.7,1.7,25.57,SE,126,2.2,2.2,14,0.00,,---,0.00,VWS V14.01,2013-03-27 10:38:00,
2013-03-27 03:43:00,47.7,0.8,25.57,SSW,196,3.1,3.1,14,0.00,,---,0.00,VWS V14.01,2013-03-27 10:43:00,
2013-03-27 03:48:00,47.5,0.7,25.57,SSE,152,4.0,5.4,14,0.00,,---,0.00,VWS V14.01,2013-03-27 10:48:00,
2013-03-27 03:53:00,47.3,0.5,25.57,SSE,151,0.0,3.6,14,0.00,,---,0.00,VWS V14.01,2013-03-27 10:53:00,
2013-03-27 03:58:00,46.8,0.1,25.57,SSW,193,4.5,4.5,14,0.00,,---,0.00,VWS V14.01,2013-03-27 10:58:00,
2013-03-27 04:03:00,46.8,0.1,25.57,South,184,3.6,4.5,14,0.00,,---,0.00,VWS V14.01,2013-03-27 11:03:00,
2013-03-27 04:08:00,46.9,0.2,25.57,South,186,4.0,4.0,14,0.00,,---,0.00,VWS V14.01,2013-03-27 11:08:00,
2013-03-27 04:13:00,48.2,1.2,25.57,South,173,5.4,5.8,14,0.00,,---,0.00,VWS V14.01,2013-03-27 11:13:00,
2013-03-27 04:18:00,48.4,1.4,25.57,South,176,5.8,6.3,14,0.00,,---,0.00,VWS V14.01,2013-03-27 11:18:00,
2013-03-27 04:23:00,48.6,1.5,25.57,South,187,3.6,4.0,14,0.00,,---,0.00,VWS V14.01,2013-03-27 11:23:00,
2013-03-27 04:29:00,47.7,0.8,25.57,South,187,0.0,0.0,14,0.00,,---,0.00,VWS V14.01,2013-03-27 11:29:00,
2013-03-27 04:33:00,48.4,1.4,25.57,South,179,5.4,6.3,14,0.00,,---,0.00,VWS V14.01,2013-03-27 11:33:00,
2013-03-27 04:39:00,48.6,1.5,25.57,SSE,151,4.0,4.9,14,0.00,,---,0.00,VWS V14.01,2013-03-27 11:39:00,
2013-03-27 04:44:00,48.4,1.4,25.57,SE,133,3.6,4.0,14,0.00,,---,0.00,VWS V14.01,2013-03-27 11:44:00,
2013-03-27 04:49:00,48.6,1.5,25.57,SE,133,2.2,3.1,14,0.00,,---,0.00,VWS V14.01,2013-03-27 11:49:00,
2013-03-27 04:54:00,48.2,1.2,25.57,SE,133,2.7,2.7,14,0.00,,---,0.00,VWS V14.01,2013-03-27 11:54:00,
2013-03-27 04:59:00,48.4,1.4,25.57,SE,130,0.0,3.1,14,0.00,,---,0.00,VWS V14.01,2013-03-27 11:59:00,
2013-03-27 05:04:00,48.4,1.4,25.57,SE,130,0.0,0.0,14,0.00,,---,0.00,VWS V14.01,2013-03-27 12:04:00,
2013-03-27 05:09:00,48.2,1.2,25.57,SE,130,0.0,0.0,14,0.00,,---,0.00,VWS V14.01,2013-03-27 12:09:00,
2013-03-27 05:14:00,48.0,1.1,25.57,SE,130,0.0,0.0,14,0.00,,---,0.00,VWS V14.01,2013-03-27 12:14:00,
2013-03-27 05:19:00,47.7,0.8,25.57,SE,130,0.0,0.0,14,0.00,,---,0.00,VWS V14.01,2013-03-27 12:19:00,
2013-03-27 05:24:00,47.3,0.5,25.57,SE,130,0.0,0.0,14,0.00,,---,0.00,VWS V14.01,2013-03-27 12:24:00,
2013-03-27 05:29:00,47.1,0.4,25.57,SE,130,0.0,0.0,14,0.00,,---,0.00,VWS V14.01,2013-03-27 12:29:00,
2013-03-27 05:34:00,46.8,0.1,25.57,SE,130,0.0,0.0,14,0.00,,---,0.00,VWS V14.01,2013-03-27 12:34:00,
2013-03-27 05:39:00,46.4,-0.2,25.57,SE,130,0.0,0.0,14,0.00,,---,0.00,VWS V14.01,2013-03-27 12:39:00,
2013-03-27 05:44:00,46.9,0.2,25.57,South,185,5.4,5.4,14,0.00,,---,0.00,VWS V14.01,2013-03-27 12:44:00,
2013-03-27 05:49:00,48.6,1.5,25.57,South,185,8.1,8.7,14,0.00,,---,0.00,VWS V14.01,2013-03-27 12:49:00,
2013-03-27 05:54:00,50.0,2.7,25.57,SSE,168,6.3,8.3,14,0.00,,---,0.00,VWS V14.01,2013-03-27 12:54:00,
2013-03-27 05:59:00,50.7,3.3,25.57,South,181,8.3,8.3,14,0.00,,---,0.00,VWS V14.01,2013-03-27 12:59:00,
2013-03-27 06:04:00,51.4,3.8,25.57,SSE,163,5.8,8.7,14,0.00,,---,0.00,VWS V14.01,2013-03-27 13:04:00,
2013-03-27 06:09:00,51.8,2.5,25.57,SSE,165,7.2,8.3,13,0.00,,---,0.00,VWS V14.01,2013-03-27 13:09:00,
2013-03-27 06:14:00,52.3,3.0,25.60,South,179,6.3,11.0,13,0.00,,---,0.00,VWS V14.01,2013-03-27 13:14:00,
2013-03-27 06:19:00,53.1,3.5,25.60,SSE,165,8.3,10.1,13,0.00,,---,0.00,VWS V14.01,2013-03-27 13:19:00,
2013-03-27 06:24:00,53.4,3.8,25.60,South,172,8.3,11.0,13,0.00,,---,0.00,VWS V14.01,2013-03-27 13:24:00,
2013-03-27 06:29:00,53.1,3.5,25.60,SSE,166,10.5,10.5,13,0.00,,---,0.00,VWS V14.01,2013-03-27 13:29:00,
2013-03-27 06:34:00,52.5,3.1,25.60,South,180,11.4,11.4,13,0.00,,---,0.00,VWS V14.01,2013-03-27 13:34:00,
2013-03-27 06:39:00,52.7,3.2,25.60,South,173,11.9,11.9,13,0.00,,---,0.00,VWS V14.01,2013-03-27 13:39:00,
2013-03-27 06:44:00,52.9,3.4,25.60,South,184,8.7,11.0,13,0.00,,---,0.00,VWS V14.01,2013-03-27 13:44:00,
2013-03-27 06:49:00,53.1,3.5,25.60,SSE,164,8.7,11.0,13,0.00,,---,0.00,VWS V14.01,2013-03-27 13:49:00,
2013-03-27 06:54:00,53.1,3.5,25.60,South,185,7.6,10.5,13,0.00,,---,0.00,VWS V14.01,2013-03-27 13:54:00,
2013-03-27 06:59:00,53.4,3.8,25.60,South,180,8.7,11.0,13,0.00,,---,0.00,VWS V14.01,2013-03-27 13:59:00,
2013-03-27 07:04:00,53.4,3.8,25.60,South,184,10.5,12.8,13,0.00,,---,0.00,VWS V14.01,2013-03-27 14:04:00,
2013-03-27 07:09:00,54.0,4.2,25.60,South,189,12.3,12.3,13,0.00,,---,0.00,VWS V14.01,2013-03-27 14:09:00,
2013-03-27 07:14:00,54.3,4.5,25.60,South,173,8.7,12.3,13,0.00,,---,0.00,VWS V14.01,2013-03-27 14:14:00,
2013-03-27 07:19:00,55.6,3.8,25.60,SSE,164,10.1,10.1,12,0.00,,---,0.00,VWS V14.01,2013-03-27 14:19:00,
2013-03-27 07:25:00,56.3,4.4,25.60,South,177,10.5,13.2,12,0.00,,---,0.00,VWS V14.01,2013-03-27 14:25:00,
2013-03-27 07:30:00,56.7,4.6,25.60,South,170,8.3,11.9,12,0.00,,---,0.00,VWS V14.01,2013-03-27 14:30:00,
2013-03-27 07:35:00,57.2,5.1,25.60,SSE,163,11.0,12.8,12,0.00,,---,0.00,VWS V14.01,2013-03-27 14:35:00,
2013-03-27 07:40:00,58.1,5.8,25.60,South,188,12.3,12.8,12,0.00,,---,0.00,VWS V14.01,2013-03-27 14:40:00,
2013-03-27 07:45:00,59.5,6.9,25.60,South,173,8.3,12.8,12,0.00,,---,0.00,VWS V14.01,2013-03-27 14:45:00,
2013-03-27 07:50:00,60.4,7.6,25.60,SSE,165,11.0,11.0,12,0.00,,---,0.00,VWS V14.01,2013-03-27 14:50:00,
2013-03-27 07:55:00,61.3,6.4,25.60,South,176,11.0,12.8,11,0.00,,---,0.00,VWS V14.01,2013-03-27 14:55:00,
2013-03-27 08:00:00,61.7,6.7,25.60,SSE,166,13.2,13.2,11,0.00,,---,0.00,VWS V14.01,2013-03-27 15:00:00,
2013-03-27 08:05:00,62.8,7.5,25.60,South,177,11.9,11.9,11,0.00,,---,0.00,VWS V14.01,2013-03-27 15:05:00,
2013-03-27 08:10:00,63.1,7.8,25.60,SSE,168,17.4,18.3,11,0.00,,---,0.00,VWS V14.01,2013-03-27 15:10:00,
2013-03-27 08:15:00,63.5,8.1,25.63,SSE,164,13.2,14.1,11,0.00,,---,0.00,VWS V14.01,2013-03-27 15:15:00,
2013-03-27 08:20:00,64.2,8.6,25.63,South,183,16.8,16.8,11,0.00,,---,0.00,VWS V14.01,2013-03-27 15:20:00,
2013-03-27 08:25:00,64.6,6.8,25.63,SSE,168,15.4,15.4,10,0.00,,---,0.00,VWS V14.01,2013-03-27 15:25:00,
2013-03-27 08:30:00,65.1,7.2,25.63,SSE,168,12.8,12.8,10,0.00,,---,0.00,VWS V14.01,2013-03-27 15:30:00,
2013-03-27 08:35:00,65.3,7.4,25.63,SSE,167,13.2,15.4,10,0.00,,---,0.00,VWS V14.01,2013-03-27 15:35:00,
2013-03-27 08:40:00,65.5,7.5,25.63,South,191,17.4,18.3,10,0.00,,---,0.00,VWS V14.01,2013-03-27 15:40:00,
2013-03-27 08:45:00,66.0,7.9,25.63,SW,230,15.0,15.0,10,0.00,,---,0.00,VWS V14.01,2013-03-27 15:45:00,
2013-03-27 08:50:00,66.0,7.9,25.63,South,182,17.0,17.9,10,0.00,,---,0.00,VWS V14.01,2013-03-27 15:50:00,
2013-03-27 08:55:00,67.1,8.7,25.63,South,174,17.4,17.4,10,0.00,,---,0.00,VWS V14.01,2013-03-27 15:55:00,
2013-03-27 09:00:00,67.8,9.3,25.63,South,173,18.8,18.8,10,0.00,,---,0.00,VWS V14.01,2013-03-27 16:00:00,
2013-03-27 09:05:00,67.5,9.0,25.63,SSE,162,12.8,12.8,10,0.00,,---,0.00,VWS V14.01,2013-03-27 16:05:00,
2013-03-27 09:10:00,68.0,9.4,25.63,SSE,163,12.8,14.5,10,0.00,,---,0.00,VWS V14.01,2013-03-27 16:10:00,
2013-03-27 09:15:00,68.2,9.6,25.63,SSE,162,15.4,17.4,10,0.00,,---,0.00,VWS V14.01,2013-03-27 16:15:00,
2013-03-27 09:20:00,68.9,10.1,25.63,SSE,164,15.4,17.4,10,0.00,,---,0.00,VWS V14.01,2013-03-27 16:20:00,
2013-03-27 09:25:00,69.1,10.3,25.63,SSE,162,17.4,17.4,10,0.00,,---,0.00,VWS V14.01,2013-03-27 16:25:00,
2013-03-27 09:30:00,69.4,10.5,25.63,South,169,15.0,15.4,10,0.00,,---,0.00,VWS V14.01,2013-03-27 16:30:00,
2013-03-27 09:35:00,69.8,8.5,25.63,South,178,17.4,19.2,9,0.00,,---,0.00,VWS V14.01,2013-03-27 16:35:00,
2013-03-27 09:40:00,70.0,8.6,25.63,SSE,164,13.2,17.9,9,0.00,,---,0.00,VWS V14.01,2013-03-27 16:40:00,
2013-03-27 09:45:00,71.1,9.4,25.63,South,182,14.5,16.3,9,0.00,,---,0.00,VWS V14.01,2013-03-27 16:45:00,
2013-03-27 09:50:00,71.8,10.0,25.63,South,181,17.4,17.4,9,0.00,,---,0.00,VWS V14.01,2013-03-27 16:50:00,
2013-03-27 09:55:00,72.0,10.1,25.63,SE,144,13.2,15.0,9,0.00,,---,0.00,VWS V14.01,2013-03-27 16:55:00,
2013-03-27 10:00:00,72.9,10.8,25.63,SSE,168,12.8,13.2,9,0.00,,---,0.00,VWS V14.01,2013-03-27 17:00:00,
2013-03-27 10:05:00,72.9,10.8,25.63,South,179,15.0,15.0,9,0.00,,---,0.00,VWS V14.01,2013-03-27 17:05:00,
2013-03-27 10:10:00,72.1,10.2,25.63,SSE,152,13.2,15.4,9,0.00,,---,0.00,VWS V14.01,2013-03-27 17:10:00,
2013-03-27 10:15:00,73.9,9.0,25.63,SSE,155,11.0,15.4,8,0.00,,---,0.00,VWS V14.01,2013-03-27 17:15:00,
2013-03-27 10:20:00,74.7,9.5,25.63,SSE,156,22.4,22.4,8,0.00,,---,0.00,VWS V14.01,2013-03-27 17:20:00,
2013-03-27 10:25:00,74.8,9.6,25.63,South,189,7.6,7.6,8,0.00,,---,0.00,VWS V14.01,2013-03-27 17:25:00,
2013-03-27 10:30:00,75.0,9.8,25.63,South,179,15.4,16.8,8,0.00,,---,0.00,VWS V14.01,2013-03-27 17:30:00,
2013-03-27 10:35:00,75.7,10.3,25.63,SSE,168,12.8,12.8,8,0.00,,---,0.00,VWS V14.01,2013-03-27 17:35:00,
2013-03-27 10:40:00,75.9,10.4,25.63,SSW,202,8.3,15.0,8,0.00,,---,0.00,VWS V14.01,2013-03-27 17:40:00,
2013-03-27 10:45:00,76.8,11.1,25.63,South,182,5.8,6.3,8,0.00,,---,0.00,VWS V14.01,2013-03-27 17:45:00,
2013-03-27 10:50:00,77.7,11.8,25.63,South,188,4.0,7.6,8,0.00,,---,0.00,VWS V14.01,2013-03-27 17:50:00,
2013-03-27 10:55:00,77.4,11.5,25.63,South,173,7.6,12.8,8,0.00,,---,0.00,VWS V14.01,2013-03-27 17:55:00,
2013-03-27 11:00:00,76.8,11.1,25.63,South,173,16.3,16.3,8,0.00,,---,0.00,VWS V14.01,2013-03-27 18:00:00,
2013-03-27 11:05:00,77.7,11.8,25.63,South,170,12.8,15.4,8,0.00,,---,0.00,VWS V14.01,2013-03-27 18:05:00,
2013-03-27 11:10:00,77.9,11.9,25.63,SE,145,10.5,11.0,8,0.00,,---,0.00,VWS V14.01,2013-03-27 18:10:00,
2013-03-27 11:15:00,79.3,10.0,25.63,South,186,14.5,14.5,7,0.00,,---,0.00,VWS V14.01,2013-03-27 18:15:00,
2013-03-27 11:21:00,78.1,12.0,25.63,South,177,16.8,16.8,8,0.00,,---,0.00,VWS V14.01,2013-03-27 18:21:00,
2013-03-27 11:25:00,78.6,12.4,25.63,SSW,194,12.3,17.9,8,0.00,,---,0.00,VWS V14.01,2013-03-27 18:25:00,
2013-03-27 11:31:00,79.2,9.8,25.63,South,182,7.6,9.6,7,0.00,,---,0.00,VWS V14.01,2013-03-27 18:31:00,
2013-03-27 11:36:00,80.8,11.0,25.63,SSW,202,10.5,17.4,7,0.00,,---,0.00,VWS V14.01,2013-03-27 18:36:00,
2013-03-27 11:41:00,80.4,10.8,25.63,South,186,6.7,8.3,7,0.00,,---,0.00,VWS V14.01,2013-03-27 18:41:00,
2013-03-27 11:46:00,79.7,10.2,25.63,SSW,208,12.8,16.8,7,0.00,,---,0.00,VWS V14.01,2013-03-27 18:46:00,
2013-03-27 11:51:00,81.1,11.3,25.63,SW,220,11.4,13.2,7,0.00,,---,0.00,VWS V14.01,2013-03-27 18:51:00,
2013-03-27 11:56:00,80.6,10.9,25.60,South,182,14.1,15.0,7,0.00,,---,0.00,VWS V14.01,2013-03-27 18:56:00,
2013-03-27 12:01:00,78.6,12.4,25.60,SSW,202,8.7,11.0,8,0.00,,---,0.00,VWS V14.01,2013-03-27 19:01:00,
2013-03-27 12:06:00,77.4,11.5,25.60,SW,215,11.0,21.9,8,0.00,,---,0.00,VWS V14.01,2013-03-27 19:06:00,
2013-03-27 12:11:00,76.8,11.1,25.60,SW,218,8.1,8.1,8,0.00,,---,0.00,VWS V14.01,2013-03-27 19:11:00,
2013-03-27 12:16:00,76.3,10.7,25.60,South,172,11.0,15.0,8,0.00,,---,0.00,VWS V14.01,2013-03-27 19:16:00,
2013-03-27 12:21:00,76.3,10.7,25.60,SSW,196,10.1,12.8,8,0.00,,---,0.00,VWS V14.01,2013-03-27 19:21:00,
2013-03-27 12:26:00,75.7,10.3,25.60,SSW,202,3.6,11.9,8,0.00,,---,0.00,VWS V14.01,2013-03-27 19:26:00,
2013-03-27 12:31:00,75.2,9.9,25.60,SSW,206,15.0,15.0,8,0.00,,---,0.00,VWS V14.01,2013-03-27 19:31:00,
2013-03-27 12:36:00,79.2,9.8,25.60,South,181,5.4,17.0,7,0.00,,---,0.00,VWS V14.01,2013-03-27 19:36:00,
2013-03-27 12:41:00,79.9,10.4,25.60,SSW,205,10.1,10.1,7,0.00,,---,0.00,VWS V14.01,2013-03-27 19:41:00,
2013-03-27 12:46:00,81.3,11.4,25.60,SW,227,8.1,8.1,7,0.00,,---,0.00,VWS V14.01,2013-03-27 19:46:00,
2013-03-27 12:52:00,79.7,10.2,25.60,South,171,13.2,13.2,7,0.00,,---,0.00,VWS V14.01,2013-03-27 19:52:00,
2013-03-27 12:57:00,80.1,10.5,25.60,SSW,196,10.5,13.2,7,0.00,,---,0.00,VWS V14.01,2013-03-27 19:57:00,
2013-03-27 13:02:00,81.5,11.6,25.60,SSW,195,9.6,11.0,7,0.00,,---,0.00,VWS V14.01,2013-03-27 20:02:00,
2013-03-27 13:07:00,82.0,11.9,25.60,South,178,15.4,15.4,7,0.00,,---,0.00,VWS V14.01,2013-03-27 20:07:00,
2013-03-27 13:12:00,81.7,11.7,25.60,South,181,8.7,8.7,7,0.00,,---,0.00,VWS V14.01,2013-03-27 20:12:00,
2013-03-27 13:17:00,81.0,11.2,25.60,SSW,192,10.5,10.5,7,0.00,,---,0.00,VWS V14.01,2013-03-27 20:17:00,
2013-03-27 13:22:00,79.9,10.4,25.60,South,174,5.8,5.8,7,0.00,,---,0.00,VWS V14.01,2013-03-27 20:22:00,
2013-03-27 13:27:00,80.6,10.9,25.60,SSW,197,10.1,11.9,7,0.00,,---,0.00,VWS V14.01,2013-03-27 20:27:00,
2013-03-27 13:32:00,78.4,12.3,25.60,SSE,153,12.3,12.3,8,0.00,,---,0.00,VWS V14.01,2013-03-27 20:32:00,
2013-03-27 13:37:00,79.3,10.0,25.60,SW,232,8.3,8.7,7,0.00,,---,0.00,VWS V14.01,2013-03-27 20:37:00,
2013-03-27 13:42:00,81.7,11.7,25.60,South,181,13.6,14.5,7,0.00,,---,0.00,VWS V14.01,2013-03-27 20:42:00,
2013-03-27 13:47:00,79.9,18.5,25.60,SSE,166,13.2,13.2,10,0.00,,---,0.00,VWS V14.01,2013-03-27 20:47:00,
2013-03-27 13:52:00,80.2,10.6,25.60,South,181,5.4,7.6,7,0.00,,---,0.00,VWS V14.01,2013-03-27 20:52:00,
2013-03-27 13:57:00,79.2,18.0,25.60,SSW,205,10.5,10.5,10,0.00,,---,0.00,VWS V14.01,2013-03-27 20:57:00,
2013-03-27 14:02:00,77.0,11.2,25.60,South,176,12.8,12.8,8,0.00,,---,0.00,VWS V14.01,2013-03-27 21:02:00,
2013-03-27 14:07:00,77.7,11.8,25.60,WSW,253,4.9,5.8,8,0.00,,---,0.00,VWS V14.01,2013-03-27 21:07:00,
2013-03-27 14:12:00,77.0,11.2,25.57,South,181,15.0,17.0,8,0.00,,---,0.00,VWS V14.01,2013-03-27 21:12:00,
2013-03-27 14:17:00,76.6,11.0,25.57,SSW,192,4.0,10.1,8,0.00,,---,0.00,VWS V14.01,2013-03-27 21:17:00,
2013-03-27 14:22:00,76.3,10.7,25.57,SSE,149,6.7,10.5,8,0.00,,---,0.00,VWS V14.01,2013-03-27 21:22:00,
2013-03-27 14:27:00,76.1,10.6,25.57,South,172,8.1,12.3,8,0.00,,---,0.00,VWS V14.01,2013-03-27 21:27:00,
2013-03-27 14:32:00,76.8,11.1,25.57,South,180,10.5,13.2,8,0.00,,---,0.00,VWS V14.01,2013-03-27 21:32:00,
2013-03-27 14:37:00,76.5,10.8,25.57,SW,222,13.2,13.2,8,0.00,,---,0.00,VWS V14.01,2013-03-27 21:37:00,
2013-03-27 14:43:00,75.9,10.4,25.57,South,182,10.1,13.6,8,0.00,,---,0.00,VWS V14.01,2013-03-27 21:43:00,
2013-03-27 14:48:00,75.9,10.4,25.57,SSE,162,7.6,8.1,8,0.00,,---,0.00,VWS V14.01,2013-03-27 21:48:00,
2013-03-27 14:53:00,76.3,10.7,25.57,South,183,0.0,4.0,8,0.00,,---,0.00,VWS V14.01,2013-03-27 21:53:00,
2013-03-27 14:58:00,75.9,10.4,25.57,South,176,10.1,12.8,8,0.00,,---,0.00,VWS V14.01,2013-03-27 21:58:00,
2013-03-27 15:03:00,76.8,11.1,25.57,SSW,206,2.7,3.6,8,0.00,,---,0.00,VWS V14.01,2013-03-27 22:03:00,
2013-03-27 15:08:00,76.1,10.6,25.57,South,183,15.9,15.9,8,0.00,,---,0.00,VWS V14.01,2013-03-27 22:08:00,
2013-03-27 15:13:00,75.7,10.3,25.57,South,175,5.4,15.4,8,0.00,,---,0.00,VWS V14.01,2013-03-27 22:13:00,
2013-03-27 15:18:00,75.7,10.3,25.57,South,185,8.7,10.5,8,0.00,,---,0.00,VWS V14.01,2013-03-27 22:18:00,
2013-03-27 15:23:00,76.1,10.6,25.57,SSW,193,5.4,10.5,8,0.00,,---,0.00,VWS V14.01,2013-03-27 22:23:00,
2013-03-27 15:28:00,76.1,10.6,25.57,South,185,13.2,13.6,8,0.00,,---,0.00,VWS V14.01,2013-03-27 22:28:00,
2013-03-27 15:33:00,76.1,10.6,25.57,South,182,8.3,10.1,8,0.00,,---,0.00,VWS V14.01,2013-03-27 22:33:00,
2013-03-27 15:38:00,75.6,10.2,25.57,South,171,16.8,16.8,8,0.00,,---,0.00,VWS V14.01,2013-03-27 22:38:00,
2013-03-27 15:43:00,75.7,10.3,25.57,WNW,289,6.3,8.7,8,0.00,,---,0.00,VWS V14.01,2013-03-27 22:43:00,
2013-03-27 15:48:00,75.9,10.4,25.57,South,190,0.0,6.3,8,0.00,,---,0.00,VWS V14.01,2013-03-27 22:48:00,
2013-03-27 15:53:00,75.7,10.3,25.57,South,184,11.0,11.0,8,0.00,,---,0.00,VWS V14.01,2013-03-27 22:53:00,
2013-03-27 15:58:00,75.4,10.0,25.57,WSW,247,8.1,11.0,8,0.00,,---,0.00,VWS V14.01,2013-03-27 22:58:00,
2013-03-27 16:03:00,75.6,10.2,25.57,SSW,193,5.4,6.3,8,0.00,,---,0.00,VWS V14.01,2013-03-27 23:03:00,
2013-03-27 16:08:00,75.6,10.2,25.57,South,185,13.2,13.2,8,0.00,,---,0.00,VWS V14.01,2013-03-27 23:08:00,
2013-03-27 16:13:00,75.2,9.9,25.57,SSW,200,5.8,8.7,8,0.00,,---,0.00,VWS V14.01,2013-03-27 23:13:00,
2013-03-27 16:18:00,75.2,9.9,25.57,South,184,2.2,3.1,8,0.00,,---,0.00,VWS V14.01,2013-03-27 23:18:00,
2013-03-27 16:23:00,75.0,9.8,25.57,SSW,204,3.6,4.5,8,0.00,,---,0.00,VWS V14.01,2013-03-27 23:23:00,
2013-03-27 16:28:00,74.8,9.6,25.57,South,187,6.3,10.5,8,0.00,,---,0.00,VWS V14.01,2013-03-27 23:28:00,
2013-03-27 16:33:00,74.8,9.6,25.57,WSW,244,2.7,4.0,8,0.00,,---,0.00,VWS V14.01,2013-03-27 23:33:00,
2013-03-27 16:38:00,74.8,9.6,25.57,WSW,244,3.1,4.0,8,0.00,,---,0.00,VWS V14.01,2013-03-27 23:38:00,
2013-03-27 16:43:00,74.7,9.5,25.57,SW,234,2.7,3.6,8,0.00,,---,0.00,VWS V14.01,2013-03-27 23:43:00,
2013-03-27 16:48:00,74.1,9.1,25.57,SW,235,10.1,10.1,8,0.00,,---,0.00,VWS V14.01,2013-03-27 23:48:00,
2013-03-27 16:53:00,74.5,9.4,25.57,SW,234,11.0,11.4,8,0.00,,---,0.00,VWS V14.01,2013-03-27 23:53:00,
2013-03-27 16:58:00,74.3,9.2,25.57,NW,304,8.7,8.7,8,0.00,,---,0.00,VWS V14.01,2013-03-27 23:58:00,
2013-03-27 17:03:00,74.3,9.2,25.57,WSW,243,7.6,8.1,8,0.00,,---,0.00,VWS V14.01,2013-03-28 00:03:00,
2013-03-27 17:08:00,74.3,9.2,25.57,West,273,3.6,8.1,8,0.00,,---,0.00,VWS V14.01,2013-03-28 00:08:00,
2013-03-27 17:13:00,74.1,9.1,25.57,WSW,255,5.4,8.3,8,0.00,,---,0.00,VWS V14.01,2013-03-28 00:13:00,
2013-03-27 17:18:00,74.1,9.1,25.57,WSW,246,8.1,12.3,8,0.00,,---,0.00,VWS V14.01,2013-03-28 00:18:00,
2013-03-27 17:23:00,74.3,9.2,25.57,SW,225,8.3,11.9,8,0.00,,---,0.00,VWS V14.01,2013-03-28 00:23:00,
2013-03-27 17:28:00,74.8,9.6,25.57,WSW,242,2.7,5.4,8,0.00,,---,0.00,VWS V14.01,2013-03-28 00:28:00,
2013-03-27 17:33:00,75.4,10.0,25.57,West,266,2.7,4.9,8,0.00,,---,0.00,VWS V14.01,2013-03-28 00:33:00,
2013-03-27 17:38:00,74.7,9.5,25.57,WSW,247,5.4,5.4,8,0.00,,---,0.00,VWS V14.01,2013-03-28 00:38:00,
2013-03-27 17:43:00,74.1,9.1,25.57,SSW,210,4.0,6.3,8,0.00,,---,0.00,VWS V14.01,2013-03-28 00:43:00,
2013-03-27 17:49:00,73.6,8.7,25.57,SW,236,2.7,6.3,8,0.00,,---,0.00,VWS V14.01,2013-03-28 00:49:00,
2013-03-27 17:54:00,73.0,10.9,25.57,SSW,195,2.7,4.0,9,0.00,,---,0.00,VWS V14.01,2013-03-28 00:54:00,
2013-03-27 17:59:00,72.5,10.5,25.57,West,266,3.6,3.6,9,0.00,,---,0.00,VWS V14.01,2013-03-28 00:59:00,
2013-03-27 18:04:00,72.1,10.2,25.57,WSW,249,3.1,5.4,9,0.00,,---,0.00,VWS V14.01,2013-03-28 01:04:00,
2013-03-27 18:09:00,71.8,10.0,25.57,WSW,249,5.4,5.4,9,0.00,,---,0.00,VWS V14.01,2013-03-28 01:09:00,
2013-03-27 18:14:00,71.4,9.7,25.57,WSW,248,2.7,4.0,9,0.00,,---,0.00,VWS V14.01,2013-03-28 01:14:00,
2013-03-27 18:19:00,71.2,9.6,25.57,West,262,2.7,3.1,9,0.00,,---,0.00,VWS V14.01,2013-03-28 01:19:00,
2013-03-27 18:24:00,71.1,9.4,25.57,WSW,243,3.1,3.1,9,0.00,,---,0.00,VWS V14.01,2013-03-28 01:24:00,
2013-03-27 18:29:00,70.7,9.1,25.57,WSW,246,0.0,0.0,9,0.00,,---,0.00,VWS V14.01,2013-03-28 01:29:00,
2013-03-27 18:34:00,70.5,9.0,25.57,SW,231,3.1,3.1,9,0.00,,---,0.00,VWS V14.01,2013-03-28 01:34:00,
2013-03-27 18:39:00,70.3,8.9,25.57,SW,217,2.7,2.7,9,0.00,,---,0.00,VWS V14.01,2013-03-28 01:39:00,
2013-03-27 18:44:00,70.2,8.7,25.57,WSW,238,3.6,3.6,9,0.00,,---,0.00,VWS V14.01,2013-03-28 01:44:00,
2013-03-27 18:49:00,70.0,8.6,25.57,WSW,248,0.0,2.7,9,0.00,,---,0.00,VWS V14.01,2013-03-28 01:49:00,
2013-03-27 18:54:00,69.4,10.5,25.57,WSW,241,0.0,0.0,10,0.00,,---,0.00,VWS V14.01,2013-03-28 01:54:00,
2013-03-27 18:59:00,69.4,10.5,25.57,SW,230,0.0,0.0,10,0.00,,---,0.00,VWS V14.01,2013-03-28 01:59:00,
2013-03-27 19:04:00,69.1,10.3,25.57,SSW,200,2.7,3.1,10,0.00,,---,0.00,VWS V14.01,2013-03-28 02:04:00,
2013-03-27 19:09:00,68.9,10.1,25.57,SW,235,4.9,5.4,10,0.00,,---,0.00,VWS V14.01,2013-03-28 02:09:00,
2013-03-27 19:14:00,68.9,10.1,25.60,South,190,3.1,3.1,10,0.00,,---,0.00,VWS V14.01,2013-03-28 02:14:00,
2013-03-27 19:19:00,68.9,10.1,25.60,South,183,3.6,3.6,10,0.00,,---,0.00,VWS V14.01,2013-03-28 02:19:00,
2013-03-27 19:24:00,68.7,10.0,25.60,SSW,202,3.6,4.0,10,0.00,,---,0.00,VWS V14.01,2013-03-28 02:24:00,
2013-03-27 19:29:00,68.2,9.6,25.60,SSW,202,0.0,0.0,10,0.00,,---,0.00,VWS V14.01,2013-03-28 02:29:00,
2013-03-27 19:34:00,67.8,9.3,25.60,SSW,202,0.0,0.0,10,0.00,,---,0.00,VWS V14.01,2013-03-28 02:34:00,
2013-03-27 19:39:00,67.5,9.0,25.60,SSW,202,0.0,0.0,10,0.00,,---,0.00,VWS V14.01,2013-03-28 02:39:00,
2013-03-27 19:44:00,67.3,8.9,25.60,SW,236,0.0,2.7,10,0.00,,---,0.00,VWS V14.01,2013-03-28 02:44:00,
2013-03-27 19:49:00,67.5,9.0,25.60,WSW,246,2.2,2.7,10,0.00,,---,0.00,VWS V14.01,2013-03-28 02:49:00,
2013-03-27 19:54:00,66.9,8.6,25.60,WSW,246,0.0,0.0,10,0.00,,---,0.00,VWS V14.01,2013-03-28 02:54:00,
2013-03-27 19:59:00,66.6,8.3,25.60,WSW,246,0.0,0.0,10,0.00,,---,0.00,VWS V14.01,2013-03-28 02:59:00,
2013-03-27 20:04:00,66.4,8.2,25.60,WSW,246,3.6,5.4,10,0.00,,---,0.00,VWS V14.01,2013-03-28 03:04:00,
2013-03-27 20:09:00,66.6,8.3,25.60,SW,228,0.0,0.0,10,0.00,,---,0.00,VWS V14.01,2013-03-28 03:09:00,
2013-03-27 20:14:00,66.0,7.9,25.60,SSW,195,0.0,2.2,10,0.00,,---,0.00,VWS V14.01,2013-03-28 03:14:00,
2013-03-27 20:19:00,66.0,7.9,25.60,South,186,2.7,4.0,10,0.00,,---,0.00,VWS V14.01,2013-03-28 03:19:00,
2013-03-27 20:24:00,66.6,8.3,25.60,South,180,2.7,3.6,10,0.00,,---,0.00,VWS V14.01,2013-03-28 03:24:00,
2013-03-27 20:29:00,66.2,8.1,25.60,South,182,5.8,5.8,10,0.00,,---,0.00,VWS V14.01,2013-03-28 03:29:00,
2013-03-27 20:34:00,66.0,7.9,25.60,South,184,5.4,5.4,10,0.00,,---,0.00,VWS V14.01,2013-03-28 03:34:00,
2013-03-27 20:39:00,65.5,7.5,25.60,South,183,6.3,6.3,10,0.00,,---,0.00,VWS V14.01,2013-03-28 03:39:00,
2013-03-27 20:44:00,65.3,7.4,25.60,South,185,4.9,5.4,10,0.00,,---,0.00,VWS V14.01,2013-03-28 03:44:00,
2013-03-27 20:49:00,65.5,7.5,25.60,South,185,5.8,8.1,10,0.00,,---,0.00,VWS V14.01,2013-03-28 03:49:00,
2013-03-27 20:54:00,65.7,7.6,25.60,South,175,8.7,8.7,10,0.00,,---,0.00,VWS V14.01,2013-03-28 03:54:00,
2013-03-27 20:59:00,66.2,8.1,25.63,South,176,6.3,8.3,10,0.00,,---,0.00,VWS V14.01,2013-03-28 03:59:00,
2013-03-27 21:00:00,66.2,8.1,25.63,South,176,6.3,8.3,10,0.00,,---,0.00,VWS V14.01,2013-03-28 04:00:00,
2013-03-27 21:05:00,66.6,8.3,25.63,SW,218,10.1,10.1,10,0.00,,---,0.00,VWS V14.01,2013-03-28 04:05:00,
2013-03-27 21:10:00,66.9,8.6,25.63,SSW,209,7.6,8.7,10,0.00,,---,0.00,VWS V14.01,2013-03-28 04:10:00,
2013-03-27 21:15:00,66.6,8.3,25.63,South,174,6.3,6.3,10,0.00,,---,0.00,VWS V14.01,2013-03-28 04:15:00,
2013-03-27 21:20:00,66.7,8.5,25.63,South,182,4.0,4.0,10,0.00,,---,0.00,VWS V14.01,2013-03-28 04:20:00,
2013-03-27 21:25:00,66.6,8.3,25.63,SSW,195,7.6,8.1,10,0.00,,---,0.00,VWS V14.01,2013-03-28 04:25:00,
2013-03-27 21:30:00,66.7,8.5,25.63,South,181,6.3,6.3,10,0.00,,---,0.00,VWS V14.01,2013-03-28 04:30:00,
2013-03-27 21:35:00,67.3,8.9,25.63,SW,219,6.3,9.6,10,0.00,,---,0.00,VWS V14.01,2013-03-28 04:35:00,
2013-03-27 21:40:00,67.1,8.7,25.63,South,186,4.9,4.9,10,0.00,,---,0.00,VWS V14.01,2013-03-28 04:40:00,
2013-03-27 21:45:00,66.9,8.6,25.63,SSW,213,0.0,2.2,10,0.00,,---,0.00,VWS V14.01,2013-03-28 04:45:00,
2013-03-27 21:50:00,66.4,8.2,25.63,SSW,192,2.7,3.6,10,0.00,,---,0.00,VWS V14.01,2013-03-28 04:50:00,
2013-03-27 21:55:00,66.2,8.1,25.63,South,182,5.8,6.3,10,0.00,,---,0.00,VWS V14.01,2013-03-28 04:55:00,
2013-03-27 22:00:00,65.8,7.8,25.63,South,176,11.0,11.0,10,0.00,,---,0.00,VWS V14.01,2013-03-28 05:00:00,
2013-03-27 22:05:00,65.1,7.2,25.63,South,171,8.7,8.7,10,0.00,,---,0.00,VWS V14.01,2013-03-28 05:05:00,
2013-03-27 22:10:00,65.3,7.4,25.63,South,179,10.1,11.9,10,0.00,,---,0.00,VWS V14.01,2013-03-28 05:10:00,
2013-03-27 22:15:00,65.1,7.2,25.63,South,184,7.2,9.6,10,0.00,,---,0.00,VWS V14.01,2013-03-28 05:15:00,
2013-03-27 22:20:00,64.8,6.9,25.63,South,180,9.6,10.1,10,0.00,,---,0.00,VWS V14.01,2013-03-28 05:20:00,
2013-03-27 22:25:00,65.1,7.2,25.63,South,177,8.7,11.0,10,0.00,,---,0.00,VWS V14.01,2013-03-28 05:25:00,
2013-03-27 22:30:00,64.6,6.8,25.63,SSE,159,11.0,12.8,10,0.00,,---,0.00,VWS V14.01,2013-03-28 05:30:00,
2013-03-27 22:35:00,64.4,6.7,25.63,South,169,12.3,12.3,10,0.00,,---,0.00,VWS V14.01,2013-03-28 05:35:00,
2013-03-27 22:40:00,64.2,8.6,25.63,SW,218,10.1,10.1,11,0.00,,---,0.00,VWS V14.01,2013-03-28 05:40:00,
2013-03-27 22:46:00,63.9,8.4,25.63,South,179,7.6,8.7,11,0.00,,---,0.00,VWS V14.01,2013-03-28 05:46:00,
2013-03-27 22:51:00,63.1,7.8,25.63,South,181,6.3,7.6,11,0.00,,---,0.00,VWS V14.01,2013-03-28 05:51:00,
2013-03-27 22:56:00,62.6,7.4,25.63,South,181,6.3,6.3,11,0.00,,---,0.00,VWS V14.01,2013-03-28 05:56:00,
2013-03-27 23:01:00,62.6,7.4,25.63,SSE,162,4.9,8.1,11,0.00,,---,0.00,VWS V14.01,2013-03-28 06:01:00,
2013-03-27 23:06:00,62.4,7.2,25.63,South,170,5.8,8.7,11,0.00,,---,0.00,VWS V14.01,2013-03-28 06:06:00,
2013-03-27 23:11:00,62.2,7.1,25.63,South,171,5.8,7.6,11,0.00,,---,0.00,VWS V14.01,2013-03-28 06:11:00,
2013-03-27 23:16:00,62.2,7.1,25.63,South,176,0.0,3.1,11,0.00,,---,0.00,VWS V14.01,2013-03-28 06:16:00,
2013-03-27 23:21:00,62.4,7.2,25.63,SSE,168,2.7,2.7,11,0.00,,---,0.00,VWS V14.01,2013-03-28 06:21:00,
2013-03-27 23:26:00,62.2,7.1,25.63,South,174,3.6,3.6,11,0.00,,---,0.00,VWS V14.01,2013-03-28 06:26:00,
2013-03-27 23:31:00,61.9,6.8,25.63,SSE,164,2.7,2.7,11,0.00,,---,0.00,VWS V14.01,2013-03-28 06:31:00,
2013-03-27 23:36:00,60.4,7.6,25.63,East,95,6.3,6.3,12,0.00,,---,0.00,VWS V14.01,2013-03-28 06:36:00,
2013-03-27 23:41:00,59.2,6.6,25.63,ESE,105,5.8,6.3,12,0.00,,---,0.00,VWS V14.01,2013-03-28 06:41:00,
2013-03-27 23:46:00,58.8,6.3,25.63,SE,139,5.4,5.4,12,0.00,,---,0.00,VWS V14.01,2013-03-28 06:46:00,
2013-03-27 23:51:00,58.6,6.2,25.63,SE,138,5.4,5.8,12,0.00,,---,0.00,VWS V14.01,2013-03-28 06:51:00,
2013-03-27 23:57:00,58.8,6.3,25.63,SE,143,8.3,8.3,12,0.00,,---,0.00,VWS V14.01,2013-03-28 06:57:00,